TimeAKDT,TemperatureF,Dew PointF,Humidity,Sea Level PressureIn,VisibilityMPH,Wind Direction,Wind SpeedMPH,Gust SpeedMPH,PrecipitationIn,Events,Conditions,WindDirDegrees,DateUTC
12:46 AM,60.8,57.2,88,29.56,1.2,Calm,Calm,-,0.01,,Clear,0,2013-06-25 08:46:00
12:48 AM,59.0,57.2,94,29.56,0.8,Calm,Calm,-,0.01,,Mist,0,2013-06-25 08:48:00
12:53 AM,60.1,57.9,93,29.57,0.8,Calm,Calm,-,0.01,,Mist,0,2013-06-25 08:53:00
12:56 AM,60.8,57.2,88,29.56,1.5,Calm,Calm,-,N/A,,Partly Cloudy,0,2013-06-25 08:56:00
12:58 AM,60.8,57.2,88,29.56,3.0,Calm,Calm,-,N/A,,Clear,0,2013-06-25 08:58:00
1:09 AM,59.0,57.2,94,29.56,1.8,Calm,Calm,-,N/A,,Partly Cloudy,0,2013-06-25 09:09:00
1:16 AM,57.2,57.2,100,29.55,1.2,NNE,3.5,-,N/A,,Partly Cloudy,20,2013-06-25 09:16:00
1:24 AM,59.0,57.2,94,29.55,2.0,Calm,Calm,-,N/A,,Partly Cloudy,0,2013-06-25 09:24:00
1:33 AM,59.0,57.2,94,29.55,10.0,Calm,Calm,-,N/A,,Clear,0,2013-06-25 09:33:00
1:53 AM,59.0,57.0,93,29.55,10.0,Calm,Calm,-,N/A,,Clear,0,2013-06-25 09:53:00
2:08 AM,57.2,55.4,94,29.55,1.8,NE,4.6,-,N/A,,Clear,40,2013-06-25 10:08:00
2:17 AM,57.2,55.4,94,29.55,1.2,NNE,3.5,-,N/A,,Clear,30,2013-06-25 10:17:00
2:22 AM,57.2,55.4,94,29.55,2.5,Calm,Calm,-,N/A,,Clear,0,2013-06-25 10:22:00
2:30 AM,57.2,55.4,94,29.55,5.0,NNE,3.5,-,N/A,,Clear,30,2013-06-25 10:30:00
2:37 AM,57.2,55.4,94,29.55,1.8,Calm,Calm,-,N/A,,Clear,0,2013-06-25 10:37:00
2:51 AM,57.2,55.4,94,29.56,3.0,NE,4.6,-,N/A,,Clear,50,2013-06-25 10:51:00
2:53 AM,57.0,55.0,93,29.56,4.0,NE,4.6,-,N/A,,Clear,40,2013-06-25 10:53:00
3:01 AM,57.2,55.4,94,29.56,2.5,ENE,3.5,-,N/A,,Partly Cloudy,70,2013-06-25 11:01:00
3:09 AM,57.2,55.4,94,29.56,9.0,NNE,4.6,-,N/A,,Clear,30,2013-06-25 11:09:00
3:53 AM,55.9,54.0,93,29.56,3.0,NE,3.5,-,N/A,,Clear,40,2013-06-25 11:53:00
3:55 AM,55.4,53.6,94,29.56,1.5,NNE,3.5,-,N/A,,Clear,30,2013-06-25 11:55:00
4:02 AM,55.4,55.4,100,29.56,1.2,Calm,Calm,-,N/A,,Partly Cloudy,0,2013-06-25 12:02:00
4:05 AM,55.4,55.4,100,29.56,3.0,Calm,Calm,-,N/A,,Clear,0,2013-06-25 12:05:00
4:26 AM,57.2,55.4,94,29.56,2.0,Calm,Calm,-,N/A,,Clear,0,2013-06-25 12:26:00
4:32 AM,55.4,53.6,94,29.56,1.2,Calm,Calm,-,N/A,,Clear,0,2013-06-25 12:32:00
4:36 AM,55.4,53.6,94,29.56,0.8,ENE,3.5,-,N/A,,Mist,60,2013-06-25 12:36:00
4:53 AM,55.0,53.1,93,29.56,0.5,Calm,Calm,-,N/A,Fog,Fog,0,2013-06-25 12:53:00
4:55 AM,55.4,53.6,94,29.56,1.0,Calm,Calm,-,N/A,,Mist,0,2013-06-25 12:55:00
5:00 AM,55.4,53.6,94,29.56,2.0,NE,3.5,-,N/A,,Partly Cloudy,50,2013-06-25 13:00:00
5:07 AM,55.4,53.6,94,29.56,1.2,NNE,4.6,-,N/A,,Partly Cloudy,20,2013-06-25 13:07:00
5:14 AM,55.4,53.6,94,29.56,1.0,NE,3.5,-,N/A,,Mist,40,2013-06-25 13:14:00
5:16 AM,55.4,53.6,94,29.56,2.0,NE,4.6,-,N/A,,Clear,40,2013-06-25 13:16:00
5:23 AM,55.4,53.6,94,29.56,3.0,NE,4.6,-,N/A,,Clear,40,2013-06-25 13:23:00
5:53 AM,55.0,54.0,96,29.57,9.0,NNE,4.6,-,N/A,,Clear,20,2013-06-25 13:53:00
6:11 AM,53.6,53.6,100,29.58,0.5,Calm,Calm,-,N/A,Fog,Fog,0,2013-06-25 14:11:00
6:21 AM,55.4,53.6,94,29.58,2.5,Calm,Calm,-,N/A,,Partly Cloudy,0,2013-06-25 14:21:00
6:28 AM,53.6,53.6,100,29.58,1.0,Calm,Calm,-,N/A,,Mist,0,2013-06-25 14:28:00
6:30 AM,53.6,53.6,100,29.57,0.2,Calm,Calm,-,N/A,Fog,Fog,0,2013-06-25 14:30:00
6:44 AM,55.4,55.4,100,29.57,1.5,Calm,Calm,-,N/A,,Partly Cloudy,0,2013-06-25 14:44:00
6:51 AM,55.4,53.6,94,29.57,7.0,Calm,Calm,-,N/A,,Partly Cloudy,0,2013-06-25 14:51:00
6:53 AM,55.0,55.0,100,29.57,7.0,Calm,Calm,-,N/A,,Partly Cloudy,0,2013-06-25 14:53:00
6:56 AM,55.4,55.4,100,29.57,1.8,Calm,Calm,-,N/A,,Partly Cloudy,0,2013-06-25 14:56:00
7:11 AM,57.2,55.4,94,29.57,10.0,Calm,Calm,-,N/A,,Clear,0,2013-06-25 15:11:00
7:53 AM,55.0,53.1,93,29.60,3.0,SW,4.6,-,N/A,,Scattered Clouds,230,2013-06-25 15:53:00
8:01 AM,55.4,53.6,94,29.60,2.5,Calm,Calm,-,N/A,,Mostly Cloudy,0,2013-06-25 16:01:00
8:08 AM,55.4,55.4,100,29.60,10.0,Calm,Calm,-,N/A,,Mostly Cloudy,0,2013-06-25 16:08:00
8:53 AM,59.0,55.9,90,29.59,10.0,Calm,Calm,-,N/A,,Mostly Cloudy,0,2013-06-25 16:53:00
9:53 AM,59.0,55.9,90,29.59,10.0,Calm,Calm,-,N/A,,Clear,0,2013-06-25 17:53:00
10:53 AM,60.1,55.9,86,29.58,10.0,SW,3.5,-,N/A,,Clear,230,2013-06-25 18:53:00
11:53 AM,60.1,55.0,83,29.57,10.0,Calm,Calm,-,N/A,,Clear,0,2013-06-25 19:53:00
12:53 PM,61.0,55.9,83,29.56,10.0,SW,5.8,-,N/A,,Clear,220,2013-06-25 20:53:00
1:53 PM,61.0,55.0,81,29.54,10.0,Calm,Calm,-,N/A,,Clear,0,2013-06-25 21:53:00
2:53 PM,62.1,54.0,75,29.53,10.0,SW,4.6,-,N/A,,Clear,230,2013-06-25 22:53:00
3:53 PM,62.1,53.1,72,29.54,10.0,Calm,Calm,-,N/A,,Mostly Cloudy,0,2013-06-25 23:53:00
4:15 PM,62.6,53.6,72,29.54,1.8,Variable,4.6,-,0.05,Rain,Rain,0,2013-06-26 00:15:00
4:25 PM,64.4,57.2,77,29.57,3.0,NNE,9.2,-,0.08,Rain,Rain,30,2013-06-26 00:25:00
4:53 PM,66.0,60.1,81,29.55,10.0,Calm,Calm,-,0.08,,Mostly Cloudy,0,2013-06-26 00:53:00
5:53 PM,63.0,59.0,87,29.54,10.0,Variable,4.6,-,N/A,,Mostly Cloudy,0,2013-06-26 01:53:00
6:53 PM,64.0,61.0,90,29.55,-9999.0,North,3.5,-,0.01,,Partly Cloudy,10,2013-06-26 02:53:00
7:00 PM,64.4,60.8,88,29.55,1.0,West,4.6,-,N/A,,Scattered Clouds,280,2013-06-26 03:00:00
7:03 PM,64.4,60.8,88,29.55,4.0,Calm,Calm,-,N/A,,Scattered Clouds,0,2013-06-26 03:03:00
7:53 PM,64.9,61.0,87,29.59,10.0,SW,16.1,23.0,N/A,,Mostly Cloudy,220,2013-06-26 03:53:00
8:53 PM,61.0,57.0,87,29.60,9.0,Calm,Calm,-,0.00,Rain,Light Rain,0,2013-06-26 04:53:00
9:53 PM,61.0,59.0,93,29.59,8.0,Calm,Calm,-,0.00,,Partly Cloudy,0,2013-06-26 05:53:00
10:53 PM,61.0,59.0,93,29.58,8.0,Calm,Calm,-,N/A,,Partly Cloudy,0,2013-06-26 06:53:00
11:11 PM,60.8,59.0,94,29.58,1.8,Calm,Calm,-,N/A,,Partly Cloudy,0,2013-06-26 07:11:00
11:18 PM,60.8,57.2,88,29.58,2.0,NW,3.5,-,N/A,,Scattered Clouds,310,2013-06-26 07:18:00
11:25 PM,60.8,59.0,94,29.57,10.0,Calm,Calm,-,N/A,,Mostly Cloudy,0,2013-06-26 07:25:00
11:53 PM,61.0,59.0,93,29.57,4.0,Calm,Calm,-,N/A,,Scattered Clouds,0,2013-06-26 07:53:00